Location: Proctor
(47.8934°N, 114.3048°W)
Time: 21:31:16
(UTC+00:00)

POLYITAN 1 - Pass Details

Date: 08 July 2022
Orbit: 586 x 604 km, 98.0° (Epoch: 11 August)

Event Time Altitude Azimuth Distance (km) Brightness Sun altitude
Rises 10:28:54 0° 3° (N) 2,867 ? -10.4°
Reaches altitude 10° 10:31:20 10° 351° (N) 1,961 ? -10.1°
Maximum altitude 10:34:53 26° 295° (WNW) 1,193 ? -9.7°
Enters shadow 10:38:14 11° 240° (WSW) 1,885 ? -9.4°
